Погода в Кондинском

Россия / Ханты-Мансийский автономный округ - Югра     59°38′58″N   67°24′50″E
темп.,
°C
ветер,
м/с
пор.,
м/с
влажн.,
%
обл.,
%
осадки,
мм/ч
давл.,
гПа
погр.,
м
21 июня, пн
пн2123:00+10с81493100 1.3 10061124
02:00+10ссв81494100 0.9 10111016
05:00+10с71393100 1.6 1014602
08:00+10с61390100 0.0 1017560
11:00+15ссв575833 0.0 10191478
14:00+16с454961 0.1 10191569
17:00+15ссз4755100 0.3 1019614
20:00+14ссз126359 0.0 101852
22 июня, вт
вт2223:00+11юв226999 0.0 101927
02:00+8ююв11785 0.0 101810
05:00+10ююз227636 0.0 101833
08:00+15юз115792 0.0 1018619
11:00+18зсз2340100 0.0 10172322
14:00+17ссв344392 0.0 10171877
17:00+17ссз4545100 0.0 10161126
20:00+15ссв355559 0.0 1016160
23 июня, ср
ср2323:00+10всв368511 0.3 1017123
02:00+8ссв359390 0.1 101886
05:00+9с388679 0.1 1019309
08:00+13ссв465323 0.0 10191145
11:00+16с5739100 0.0 10192240
14:00+17с4734100 0.0 10182391
17:00+19с4832100 0.0 10162684
20:00+14в5752100 0.0 1017509
24 июня, чт
чт2423:00+9вюв357189 0.0 1017111
02:00+8ююв3580100 0.0 1017145
05:00+9ююв2378100 0.0 1017160
08:00+11ю346626 0.0 1016552
11:00+17ююз124922 0.0 10151473
14:00+17вюв224577 0.0 10151286
17:00+18юв4248100 0.0 10151135
20:00+16юв3561100 0.0 1015195
25 июня, пт
пт2523:00+12ююв4872100 0.0 1014205
02:00+11ю367899 0.0 1015134
05:00+11ю3774100 0.0 1014203
08:00+13ю356697 0.0 1013262
11:00+18ююз455199 0.0 1012904
14:00+20ююз4546100 0.0 10111280
17:00+20зюз4448100 0.0 10101082
20:00+17юз266793 0.0 1009214